Location: Bieujac
(44.5398°N, 0.1549°W)
Time: 21:24:52
(UTC+00:00)

USA 116 - Pass Details

Date: 17 November 2019
Orbit: 405 x 834 km, 97.9° (Epoch: 18 November)

Event Time Altitude Azimuth Distance (km) Brightness Sun altitude
Rises 05:39:46 0° 173° (S) 2,340 7.2 -14.1°
Reaches altitude 10° 05:41:41 10° 176° (S) 1,506 6.2 -13.8°
Maximum altitude 05:44:51 63° 259° (WSW) 503 3.2 -13.3°
Drops below altitude 10° 05:48:20 10° 341° (NNW) 1,654 5.8 -12.7°
Enters shadow 05:49:52 - 344° (NNW) 2,313 6.6 -12.4°
